Regional Weather Roundup
Issued by NWS State College, PA

Home | Current Version | Previous Version | Text Only | Print | Product List | Glossary Off
Versions: 1 2 3 4 5 6 7 8 9 10 11 12 13 14 15 16 17 18 19 20 21 22 23 24 25 26 27 28 29 30 31 32 33 34 35 36 37 38 39 40 41 42 43 44 45 46 47 48 49 50

000
ASUS41 KCTP 310303
RWRCTP

REGIONAL WEATHER ROUNDUP
NATIONAL WEATHER SERVICE STATE COLLEGE PA
1100 PM EDT THU OCT 30 2014

Note: "fair" indicates few or no clouds below 12,000 feet with no
significant weather and/or obstructions to visibility.

* = STATION THAT DOES NOT REPORT PRECIPITATION /E.G. RAIN...SNOW...ETC/
    THUNDER OR FOG.

PAZ002>004-007>009-013>016-020>023-029>032-310400-
WESTERN PENNSYLVANIA

CITY           SKY/WX    TMP DP  RH WIND       PRES   REMARKS
ERIE           MOCLDY    41  36  82 S5        30.04S
MEADVILLE      MOCLDY    39  35  86 CALM      30.03F
FRANKLIN*      CLOUDY    41  36  81 CALM      30.05S
NEW CASTLE       N/A     44  37  76 CALM      30.06S
BEAVER COUNTY  NOT AVBL
BUTLER*        CLOUDY    45  36  70 CALM      30.05F
PITTSBURGH INT CLOUDY    45  37  73 W3        30.04F
PITTSBURGH     CLOUDY    47  33  58 W3        30.04S
INDIANA*       CLOUDY    43  43 100 CALM      30.07F
LATROBE        CLOUDY    45  39  81 CALM      30.06F
WASHINGTON CO* CLOUDY    45  36  70 CALM      30.06S
$$

PAZ004>006-010>012-017>019-024>028-033>037-041-042-045-046-049>053-310400-
CENTRAL PENNSYLVANIA

CITY           SKY/WX    TMP DP  RH WIND       PRES   REMARKS
BRADFORD       CLOUDY    37  34  89 CALM      30.01F
DUBOIS         CLOUDY    40  38  93 SW3       30.02S
CLEARFIELD     CLOUDY    42  36  79 CALM      30.03S
JOHNSTOWN      CLOUDY    41  35  79 NW3       30.01F
ALTOONA        CLOUDY    42  37  82 CALM      30.04S
STATE COLLEGE  CLEAR     40  33  74 CALM      30.03S
WILLIAMSPORT   CLEAR     39  32  76 CALM      30.04R
SELINSGROVE    CLOUDY    46  42  86 CALM      30.05S
FT INDIANTOWN  MOCLDY    45  38  77 CALM      30.03F
CAPITAL CITY   CLOUDY    46  39  76 SW3       30.03F
HARRISBURG     MOCLDY    47  41  80 CALM      30.03S
YORK           CLOUDY    45  40  82 CALM      30.03F
$$

PAZ038>040-043-044-047-048-054-055-060>062-067>071-310400-
EASTERN PENNSYLVANIA

CITY           SKY/WX    TMP DP  RH WIND       PRES   REMARKS
SCRANTON       CLEAR     38  31  76 CALM      30.02S
MOUNT POCONO   CLEAR     34  29  82 NW5       30.00S
ALLENTOWN      CLEAR     38  32  79 NW3       30.04S
QUAKERTOWN*    CLEAR     36  34  93 CALM      30.04S
READING        CLEAR     41  34  76 VRB3      30.04S
LANCASTER      MOCLDY    46  38  73 CALM      30.04S
COATESVILLE    CLEAR     41  36  81 CALM      30.04S
POTTSTOWN      CLEAR     37  33  85 CALM      30.05S
BLUE BELL      CLEAR     37  36  93 CALM      30.03S
DOYLESTOWN     CLEAR     38  34  85 CALM      30.03S
WILLOW GROVE   NOT AVBL
NORTH PHILA    CLEAR     46  32  58 NW3       30.06S
PHILADELPHIA   CLEAR     49  34  56 CALM      30.05S
$$



USA.gov is the U.S. government's official web portal to all federal, state and local government web resources and services.